Flag for United Kingdom Weather past 2 weeks in Southampton, England, United Kingdom

Now
57 °F

Passing clouds.


Feels Like: 57 °F
Forecast: 59 / 70 °F
Wind: 2 mph from North

Location: Bournemouth Airport

Current Time: Aug 1, 2014 at 5:01:40 AM

Latest Report: Aug 1, 2014 at 2:50 AM


Visibility: N/A

Pressure: 29.86 "Hg

Humidity: 94%

Dew point: 55 °F

Location of SouthamptonLocation

Historic Weather in Southampton — Graph

°F

Southampton temperature yesterday

Maximum temperature yesterday: 75 °F (at 1:20 PM)
Minimum temperature yesterday: 50 °F (at 4:50 AM)
Average temperature yesterday: 66 °F

Past Weeks' High & Low Weather Summary

 TemperatureHumidityPressure
High86 °F (Jul 26, 4:50 PM)100% (Jul 17, 5:50 AM)30.21 "Hg (Jul 17, 5:50 AM)
Low50 °F (Jul 31, 4:50 AM)24% (Jul 25, 11:50 AM)29.71 "Hg (Jul 19, 5:20 PM)
Average69 °F68%29.99 "Hg
* Reported Jul 17 4:50 AM — Aug 1 2:50 AM, Southampton, Weather by CustomWeather, © 2014

Note: Actual official high and low records may vary slightly from our data, if they occured in-between our weather recording intervals... More about our weather records

Advertising

Southampton weather history for previous 24 hours

 ConditionsComfort  
Time TempWeatherWind HumidityBarometerVisibility
2:50 AM
Aug 1
57 °FPassing clouds.2 mph94%29.86 "HgN/A
1:50 AM57 °FClear.2 mph94%29.89 "Hg10 mi
1:20 AM57 °FClear.2 mph88%29.89 "Hg10 mi
12:50 AM61 °FClear.5 mph88%29.89 "Hg10 mi
11:50 PM
Jul 31
61 °FClear.3 mph83%29.89 "Hg10 mi
11:20 PM61 °FClear.5 mph88%29.89 "Hg10 mi
10:50 PM63 °FClear.7 mph83%29.89 "Hg10 mi
10:20 PM63 °FClear.8 mph83%29.89 "Hg10 mi
9:50 PM63 °FSunny.7 mph83%29.92 "Hg10 mi
9:20 PM64 °FSunny.8 mph78%29.92 "Hg10 mi
8:50 PM64 °FSunny.8 mph78%29.89 "Hg10 mi
8:20 PM66 °FSunny.10 mph73%29.92 "Hg10 mi
7:50 PM68 °FSunny.10 mph64%29.92 "Hg10 mi
7:20 PM70 °FSunny.10 mph60%29.92 "Hg10 mi
6:50 PM70 °FSunny.15 mph60%29.92 "Hg10 mi
6:20 PM72 °FSunny.12 mph61%29.92 "Hg10 mi
5:50 PM72 °FSunny.14 mph61%29.92 "Hg10 mi
5:20 PM73 °FPassing clouds.13 mph57%29.92 "HgN/A
4:50 PM73 °FPassing clouds.14 mph57%29.92 "HgN/A
4:20 PM72 °FPassing clouds.13 mph61%29.92 "HgN/A
3:50 PM73 °FPassing clouds.14 mph61%29.95 "HgN/A
3:20 PM73 °FPassing clouds.14 mph57%29.95 "HgN/A
2:50 PM72 °FScattered clouds.15 mph61%29.95 "HgN/A
2:20 PM72 °FScattered clouds.14 mph61%29.95 "HgN/A
1:50 PM75 °FScattered clouds.15 mph54%29.95 "HgN/A
1:20 PM75 °FScattered clouds.13 mph54%29.95 "HgN/A
12:50 PM73 °FScattered clouds.10 mph57%29.95 "HgN/A
12:20 PM73 °FScattered clouds.9 mph57%29.95 "HgN/A
11:50 AM72 °FPassing clouds.7 mph57%29.98 "HgN/A
11:20 AM72 °FScattered clouds.8 mph53%29.98 "HgN/A
10:50 AM72 °FPassing clouds.8 mph57%29.98 "HgN/A
10:20 AM68 °FPassing clouds.8 mph60%29.98 "HgN/A
9:50 AM68 °FPassing clouds.12 mph64%30.01 "HgN/A
9:20 AM66 °FPassing clouds.10 mph64%30.01 "HgN/A
8:50 AM64 °FSunny.7 mph68%29.98 "Hg10 mi
8:20 AM63 °FSunny.8 mph77%30.01 "Hg10 mi
7:50 AM61 °FSunny.6 mph88%30.01 "Hg10 mi
7:20 AM59 °FSunny.3 mph88%30.01 "Hg10 mi
6:50 AM55 °FSunny.3 mph100%30.01 "Hg10 mi
6:20 AM50 °FFog.1 mph94%30.01 "HgN/A
5:50 AM50 °FFog.1 mph94%30.01 "HgN/A
5:20 AM50 °FClear.1 mph94%30.01 "Hg10 mi
Weather by CustomWeather, © 2014

See weather overviewHow to use our weather pages